Castlebar Airport

Jump to: basic info | weather | comments

Related pages: nearby airports | nearby navaids | notams | map

Basic information (top)

Codes: CLB EICB
Location: lon 53.848400, lat -9.280370
Status: small_airport

Weather (top)

Current conditions for Ireland West Knock Airport 17nm (31km) ENE (rec'd 2014/11/28 13:00Z):

EIKN 281300Z 10013KT 070V140 9000 BKN006 SCT220 09/08 Q1002 NOSIG

Airport forecast for Ireland West Knock Airport 17nm (31km) ENE (rec'd 2014/11/28 12:25Z):

TAF EIKN 281100Z 2812/2912 08012KT 9999 FEW005 SCT030 
      BECMG 2819/2822 09005KT 3000 BR BKN005 
      BECMG 2822/2824 0200 FG BKN001 
      BECMG 2910/2912 18007KT 3000 BR BKN010

Latest comments (top)

No longer exists.: This airport was closed in 2001 and the ... [read]

fv: fg [read]

More... (top)

See also NOTAMs and nearby airports and navaids, or visit the Castlebar Airport page at the main OurAirports website..